TimeEDT,TemperatureF,Dew PointF,Humidity,Sea Level PressureIn,VisibilityMPH,Wind Direction,Wind SpeedMPH,Gust SpeedMPH,PrecipitationIn,Events,Conditions,WindDirDegrees,DateUTC
12:56 AM,77.0,73.0,88,30.04,10.0,South,9.2,-,N/A,,Partly Cloudy,190,2012-10-03 04:56:00
2:09 AM,78.8,73.4,83,30.03,10.0,South,5.8,-,N/A,,Mostly Cloudy,190,2012-10-03 06:09:00
2:17 AM,78.8,73.4,83,30.03,10.0,South,8.1,-,N/A,,Mostly Cloudy,190,2012-10-03 06:17:00
2:56 AM,79.0,75.0,88,30.04,10.0,SSW,11.5,16.1,N/A,,Overcast,200,2012-10-03 06:56:00
3:08 AM,78.8,73.4,83,30.03,10.0,SSW,8.1,-,N/A,,Overcast,200,2012-10-03 07:08:00
3:24 AM,78.8,73.4,83,30.03,10.0,SSW,6.9,19.6,N/A,,Mostly Cloudy,210,2012-10-03 07:24:00
3:31 AM,78.8,73.4,83,30.03,10.0,SSW,9.2,-,N/A,,Scattered Clouds,200,2012-10-03 07:31:00
4:17 AM,78.8,73.4,83,30.04,10.0,SW,8.1,17.3,N/A,,Scattered Clouds,220,2012-10-03 08:17:00
6:56 AM,75.9,73.0,91,30.08,10.0,Calm,Calm,-,N/A,,Partly Cloudy,0,2012-10-03 10:56:00
7:56 AM,75.9,72.0,87,30.11,10.0,SSW,3.5,-,N/A,,Mostly Cloudy,210,2012-10-03 11:56:00
8:56 AM,77.0,72.0,84,30.12,10.0,South,5.8,-,N/A,,Mostly Cloudy,190,2012-10-03 12:56:00
10:56 AM,78.1,72.0,81,30.14,10.0,SSW,5.8,-,0.00,Rain,Light Rain,210,2012-10-03 14:56:00
12:48 PM,82.4,73.4,74,30.13,10.0,WSW,5.8,-,N/A,,Mostly Cloudy,240,2012-10-03 16:48:00
1:03 PM,82.4,73.4,74,30.12,10.0,SW,3.5,-,N/A,,Scattered Clouds,220,2012-10-03 17:03:00
1:56 PM,81.0,73.0,77,30.11,10.0,SSE,10.4,-,N/A,,Mostly Cloudy,160,2012-10-03 17:56:00
2:46 PM,77.0,73.4,89,30.11,2.5,West,17.3,23.0,0.01,Rain,Light Rain,280,2012-10-03 18:46:00
2:56 PM,75.0,72.0,90,30.12,2.5,WNW,11.5,24.2,0.07,Rain,Light Rain,290,2012-10-03 18:56:00
2:58 PM,75.2,71.6,89,30.11,3.0,WNW,10.4,-,0.00,Rain,Light Rain,300,2012-10-03 18:58:00
3:06 PM,75.2,71.6,89,30.11,2.0,WNW,6.9,-,0.03,Rain,Light Rain,300,2012-10-03 19:06:00
3:13 PM,75.2,71.6,89,30.10,1.5,North,5.8,-,0.07,Rain,Light Rain,360,2012-10-03 19:13:00
3:21 PM,75.2,71.6,89,30.10,6.0,North,3.5,-,0.07,,Haze,360,2012-10-03 19:21:00
3:56 PM,78.1,72.0,81,30.11,6.0,Calm,Calm,-,0.07,,Haze,0,2012-10-03 19:56:00
4:56 PM,78.1,73.0,84,30.12,10.0,ESE,3.5,-,N/A,,Mostly Cloudy,120,2012-10-03 20:56:00
5:56 PM,75.0,71.1,87,30.13,10.0,South,6.9,-,0.00,,Overcast,170,2012-10-03 21:56:00
6:56 PM,75.0,72.0,90,30.14,10.0,South,4.6,-,N/A,,Clear,190,2012-10-03 22:56:00
7:56 PM,75.0,73.0,94,30.15,10.0,South,3.5,-,N/A,,Clear,170,2012-10-03 23:56:00
8:56 PM,75.0,73.0,94,30.17,10.0,South,4.6,-,N/A,,Clear,190,2012-10-04 00:56:00
9:56 PM,73.9,72.0,93,30.18,10.0,South,3.5,-,N/A,,Clear,190,2012-10-04 01:56:00
10:56 PM,73.9,72.0,93,30.19,9.0,South,4.6,-,N/A,,Clear,190,2012-10-04 02:56:00
11:56 PM,73.9,72.0,93,30.20,10.0,SW,3.5,-,N/A,,Mostly Cloudy,230,2012-10-04 03:56:00